Year,Month,Day,Hour,Minute,Value (Times are PST for temperature in C)
2023,05,15,00,00,16.10
2023,05,15,00,01,16.10
2023,05,15,00,02,16.10
2023,05,15,00,03,16.10
2023,05,15,00,04,16.00
2023,05,15,00,05,16.00
2023,05,15,00,06,16.00
2023,05,15,00,07,15.90
2023,05,15,00,08,15.90
2023,05,15,00,09,15.90
2023,05,15,00,10,15.90
2023,05,15,00,11,15.90
2023,05,15,00,12,15.90
2023,05,15,00,13,15.90
2023,05,15,00,14,15.80
2023,05,15,00,15,15.80
2023,05,15,00,16,15.80
2023,05,15,00,17,15.80
2023,05,15,00,18,15.80
2023,05,15,00,19,15.70
2023,05,15,00,20,15.70
2023,05,15,00,21,15.70
2023,05,15,00,22,15.70
2023,05,15,00,23,15.70
2023,05,15,00,24,15.60
2023,05,15,00,25,15.60
2023,05,15,00,26,15.60
2023,05,15,00,27,15.60
2023,05,15,00,28,15.50
2023,05,15,00,29,15.50
2023,05,15,00,30,15.50
2023,05,15,00,31,15.50
2023,05,15,00,32,15.40
2023,05,15,00,33,15.40
2023,05,15,00,34,15.40
2023,05,15,00,35,15.40
2023,05,15,00,36,15.30
2023,05,15,00,37,15.30
2023,05,15,00,38,15.30
2023,05,15,00,39,15.30
2023,05,15,00,40,15.30
2023,05,15,00,41,15.30
2023,05,15,00,42,15.30
2023,05,15,00,43,15.20
2023,05,15,00,44,15.20
2023,05,15,00,45,15.20
2023,05,15,00,46,15.20
2023,05,15,00,47,15.20
2023,05,15,00,48,15.10
2023,05,15,00,49,15.10
2023,05,15,00,50,15.10
2023,05,15,00,51,15.10
2023,05,15,00,52,15.10
2023,05,15,00,53,15.10
2023,05,15,00,54,15.10
2023,05,15,00,55,15.00
2023,05,15,00,56,15.00
2023,05,15,00,57,15.00
2023,05,15,00,58,15.00
2023,05,15,00,59,14.90
2023,05,15,01,00,14.90
2023,05,15,01,01,14.90
2023,05,15,01,02,14.90
2023,05,15,01,03,14.90
2023,05,15,01,04,14.90
2023,05,15,01,05,14.90
2023,05,15,01,06,14.90
2023,05,15,01,07,14.80
2023,05,15,01,08,14.80
2023,05,15,01,09,14.80
2023,05,15,01,10,14.80
2023,05,15,01,11,14.80
2023,05,15,01,12,14.80
2023,05,15,01,13,14.80
2023,05,15,01,14,14.80
2023,05,15,01,15,14.80
2023,05,15,01,16,14.80
2023,05,15,01,17,14.80
2023,05,15,01,18,14.70
2023,05,15,01,19,14.70
2023,05,15,01,20,14.70
2023,05,15,01,21,14.70
2023,05,15,01,22,14.70
2023,05,15,01,23,14.60
2023,05,15,01,24,14.60
2023,05,15,01,25,14.60
2023,05,15,01,26,14.60
2023,05,15,01,27,14.60
2023,05,15,01,28,14.60
2023,05,15,01,29,14.60
2023,05,15,01,30,14.50
2023,05,15,01,31,14.50
2023,05,15,01,32,14.50
2023,05,15,01,33,14.50
2023,05,15,01,34,14.40
2023,05,15,01,35,14.40
2023,05,15,01,36,14.40
2023,05,15,01,37,14.40
2023,05,15,01,38,14.40
2023,05,15,01,39,14.40
2023,05,15,01,40,14.40
2023,05,15,01,41,14.30
2023,05,15,01,42,14.30
2023,05,15,01,43,14.30
2023,05,15,01,44,14.30
2023,05,15,01,45,14.30
2023,05,15,01,46,14.30
2023,05,15,01,47,14.30
2023,05,15,01,48,14.30
2023,05,15,01,49,14.20
2023,05,15,01,50,14.20
2023,05,15,01,51,14.20
2023,05,15,01,52,14.20
2023,05,15,01,53,14.20
2023,05,15,01,54,14.20
2023,05,15,01,55,14.20
2023,05,15,01,56,14.20
2023,05,15,01,57,14.20
2023,05,15,01,58,14.20
2023,05,15,01,59,14.20
2023,05,15,02,00,14.10
2023,05,15,02,01,14.10
2023,05,15,02,02,14.10
2023,05,15,02,03,14.10
2023,05,15,02,04,14.10
2023,05,15,02,05,14.10
2023,05,15,02,06,14.10
2023,05,15,02,07,14.10
2023,05,15,02,08,14.10
2023,05,15,02,09,14.10
2023,05,15,02,10,14.10
2023,05,15,02,11,14.00
2023,05,15,02,12,14.00
2023,05,15,02,13,14.00
2023,05,15,02,14,14.00
2023,05,15,02,15,14.00
2023,05,15,02,16,14.00
2023,05,15,02,17,14.00
2023,05,15,02,18,14.00
2023,05,15,02,19,14.00
2023,05,15,02,20,14.00
2023,05,15,02,21,14.00
2023,05,15,02,22,14.00
2023,05,15,02,23,13.90
2023,05,15,02,24,13.90
2023,05,15,02,25,13.90
2023,05,15,02,26,13.90
2023,05,15,02,27,13.90
2023,05,15,02,28,14.00
2023,05,15,02,29,14.00
2023,05,15,02,30,14.00
2023,05,15,02,31,14.00
2023,05,15,02,32,14.10
2023,05,15,02,33,14.10
2023,05,15,02,34,14.10
2023,05,15,02,35,14.20
2023,05,15,02,36,14.20
2023,05,15,02,37,14.20
2023,05,15,02,38,14.20
2023,05,15,02,39,14.30
2023,05,15,02,40,14.30
2023,05,15,02,41,14.30
2023,05,15,02,42,14.40
2023,05,15,02,43,14.40
2023,05,15,02,44,14.40
2023,05,15,02,45,14.50
2023,05,15,02,46,14.50
2023,05,15,02,47,14.50
2023,05,15,02,48,14.60
2023,05,15,02,49,14.60
2023,05,15,02,50,14.60
2023,05,15,02,51,14.70
2023,05,15,02,52,14.70
2023,05,15,02,53,14.70
2023,05,15,02,54,14.70
2023,05,15,02,55,14.70
2023,05,15,02,56,14.80
2023,05,15,02,57,14.80
2023,05,15,02,58,14.80
2023,05,15,02,59,14.80
2023,05,15,03,00,14.80
2023,05,15,03,01,14.80
2023,05,15,03,02,14.80
2023,05,15,03,03,14.80
2023,05,15,03,04,14.80
2023,05,15,03,05,14.80
2023,05,15,03,06,14.80
2023,05,15,03,07,14.80
2023,05,15,03,08,14.80
2023,05,15,03,09,14.80
2023,05,15,03,10,14.80
2023,05,15,03,11,14.80
2023,05,15,03,12,14.80
2023,05,15,03,13,14.80
2023,05,15,03,14,14.80
2023,05,15,03,15,14.80
2023,05,15,03,16,14.80
2023,05,15,03,17,14.80
2023,05,15,03,18,14.80
2023,05,15,03,19,14.80
2023,05,15,03,20,14.80
2023,05,15,03,21,14.80
2023,05,15,03,22,14.80
2023,05,15,03,23,14.70
2023,05,15,03,24,14.70
2023,05,15,03,25,14.70
2023,05,15,03,26,14.70
2023,05,15,03,27,14.70
2023,05,15,03,28,14.70
2023,05,15,03,29,14.80
2023,05,15,03,30,14.80
2023,05,15,03,31,14.80
2023,05,15,03,32,14.80
2023,05,15,03,33,14.90
2023,05,15,03,34,14.90
2023,05,15,03,35,14.90
2023,05,15,03,36,14.90
2023,05,15,03,37,15.00
2023,05,15,03,38,15.10
2023,05,15,03,39,15.10
2023,05,15,03,40,15.10
2023,05,15,03,41,15.10
2023,05,15,03,42,15.10
2023,05,15,03,43,15.20
2023,05,15,03,44,15.20
2023,05,15,03,45,15.30
2023,05,15,03,46,15.30
2023,05,15,03,47,15.30
2023,05,15,03,48,15.40
2023,05,15,03,49,15.40
2023,05,15,03,50,15.40
2023,05,15,03,51,15.50
2023,05,15,03,52,15.60
2023,05,15,03,53,15.60
2023,05,15,03,54,15.70
2023,05,15,03,55,15.80
2023,05,15,03,56,15.80
2023,05,15,03,57,15.90
2023,05,15,03,58,16.00
2023,05,15,03,59,16.00
2023,05,15,04,00,16.10
2023,05,15,04,01,16.20
2023,05,15,04,02,16.20
2023,05,15,04,03,16.30
2023,05,15,04,04,16.30
2023,05,15,04,05,16.40
2023,05,15,04,06,16.40
2023,05,15,04,07,16.50
2023,05,15,04,08,16.50
2023,05,15,04,09,16.60
2023,05,15,04,10,16.60
2023,05,15,04,11,16.70
2023,05,15,04,12,16.70
2023,05,15,04,13,16.80
2023,05,15,04,14,16.80
2023,05,15,04,15,16.90
2023,05,15,04,16,17.00
2023,05,15,04,17,17.10
2023,05,15,04,18,17.10
2023,05,15,04,19,17.20
2023,05,15,04,20,17.20
2023,05,15,04,21,17.30
2023,05,15,04,22,17.30
2023,05,15,04,23,17.30
2023,05,15,04,24,17.30
2023,05,15,04,25,17.40
2023,05,15,04,26,17.40
2023,05,15,04,27,17.40
2023,05,15,04,28,17.50
2023,05,15,04,29,17.50
2023,05,15,04,30,17.50
2023,05,15,04,31,17.50
2023,05,15,04,32,17.40
2023,05,15,04,33,17.40
2023,05,15,04,34,17.40
2023,05,15,04,35,17.40
2023,05,15,04,36,17.40
2023,05,15,04,37,17.40
2023,05,15,04,38,17.40
2023,05,15,04,39,17.40
2023,05,15,04,40,17.40
2023,05,15,04,41,17.40
2023,05,15,04,42,17.50
2023,05,15,04,43,17.50
2023,05,15,04,44,17.60
2023,05,15,04,45,17.60
2023,05,15,04,46,17.60
2023,05,15,04,47,17.60
2023,05,15,04,48,17.70
2023,05,15,04,49,17.70
2023,05,15,04,50,17.70
2023,05,15,04,51,17.80
2023,05,15,04,52,17.80
2023,05,15,04,53,17.80
2023,05,15,04,54,17.80
2023,05,15,04,55,17.80
2023,05,15,04,56,17.80
2023,05,15,04,57,17.80
2023,05,15,04,58,17.80
2023,05,15,04,59,17.80
2023,05,15,05,00,17.80
2023,05,15,05,01,17.80
2023,05,15,05,02,17.80
2023,05,15,05,03,17.80
2023,05,15,05,04,17.80
2023,05,15,05,05,17.80
2023,05,15,05,06,17.80
2023,05,15,05,07,17.80
2023,05,15,05,08,17.80
2023,05,15,05,09,17.80
2023,05,15,05,10,17.80
2023,05,15,05,11,17.80
2023,05,15,05,12,17.80
2023,05,15,05,13,17.80
2023,05,15,05,14,17.80
2023,05,15,05,15,17.90
2023,05,15,05,16,17.90
2023,05,15,05,17,17.90
2023,05,15,05,18,17.90
2023,05,15,05,19,17.90
2023,05,15,05,20,17.90
2023,05,15,05,21,17.90
2023,05,15,05,22,18.00
2023,05,15,05,23,18.00
2023,05,15,05,24,18.00
2023,05,15,05,25,18.00
2023,05,15,05,26,18.10
2023,05,15,05,27,18.10
2023,05,15,05,28,18.10
2023,05,15,05,29,18.00
2023,05,15,05,30,18.10
2023,05,15,05,31,18.10
2023,05,15,05,32,18.10
2023,05,15,05,33,18.00
2023,05,15,05,34,18.00
2023,05,15,05,35,17.90
2023,05,15,05,36,17.80
2023,05,15,05,37,17.70
2023,05,15,05,38,17.60
2023,05,15,05,39,17.40
2023,05,15,05,40,17.30
2023,05,15,05,41,17.20
2023,05,15,05,42,17.10
2023,05,15,05,43,17.00
2023,05,15,05,44,16.90
2023,05,15,05,45,16.80
2023,05,15,05,46,16.70
2023,05,15,05,47,16.70
2023,05,15,05,48,16.70
2023,05,15,05,49,16.60
2023,05,15,05,50,16.50
2023,05,15,05,51,16.40
2023,05,15,05,52,16.30
2023,05,15,05,53,16.30
2023,05,15,05,54,16.30
2023,05,15,05,55,16.20
2023,05,15,05,56,16.20
2023,05,15,05,57,16.20
2023,05,15,05,58,16.20
2023,05,15,05,59,16.10
2023,05,15,06,00,16.10
2023,05,15,06,01,16.10
2023,05,15,06,02,16.10
2023,05,15,06,03,16.10
2023,05,15,06,04,16.10
2023,05,15,06,05,16.00
2023,05,15,06,06,16.00
2023,05,15,06,07,15.90
2023,05,15,06,08,15.80
2023,05,15,06,09,15.80
2023,05,15,06,10,15.70
2023,05,15,06,11,15.70
2023,05,15,06,12,15.70
2023,05,15,06,13,15.60
2023,05,15,06,14,15.60
2023,05,15,06,15,15.60
2023,05,15,06,16,15.60
2023,05,15,06,17,15.60
2023,05,15,06,18,15.70
2023,05,15,06,19,15.80
2023,05,15,06,20,15.90
2023,05,15,06,21,16.00
2023,05,15,06,22,16.10
2023,05,15,06,23,16.30
2023,05,15,06,24,16.30
2023,05,15,06,25,16.40
2023,05,15,06,26,16.40
2023,05,15,06,27,16.50
2023,05,15,06,28,16.60
2023,05,15,06,29,16.60
2023,05,15,06,30,16.70
2023,05,15,06,31,16.70
2023,05,15,06,32,16.80
2023,05,15,06,33,16.80
2023,05,15,06,34,16.80
2023,05,15,06,35,16.80
2023,05,15,06,36,16.90
2023,05,15,06,37,16.90
2023,05,15,06,38,16.90
2023,05,15,06,39,16.90
2023,05,15,06,40,17.00
2023,05,15,06,41,17.00
2023,05,15,06,42,17.00
2023,05,15,06,43,17.00
2023,05,15,06,44,16.90
2023,05,15,06,45,16.90
2023,05,15,06,46,16.90
2023,05,15,06,47,16.90
2023,05,15,06,48,17.00
2023,05,15,06,49,17.00
2023,05,15,06,50,17.00
2023,05,15,06,51,17.10
2023,05,15,06,52,17.20
2023,05,15,06,53,17.30
2023,05,15,06,54,17.30
2023,05,15,06,55,17.40
2023,05,15,06,56,17.50
2023,05,15,06,57,17.60
2023,05,15,06,58,17.70
2023,05,15,06,59,17.70
2023,05,15,07,00,17.80
2023,05,15,07,01,17.90
2023,05,15,07,02,17.90
2023,05,15,07,03,17.90
2023,05,15,07,04,18.00
2023,05,15,07,05,18.10
2023,05,15,07,06,18.10
2023,05,15,07,07,18.10
2023,05,15,07,08,18.20
2023,05,15,07,09,18.20
2023,05,15,07,10,18.20
2023,05,15,07,11,18.30
2023,05,15,07,12,18.30
2023,05,15,07,13,18.40
2023,05,15,07,14,18.50
2023,05,15,07,15,18.60
2023,05,15,07,16,18.70
2023,05,15,07,17,18.80
2023,05,15,07,18,18.90
2023,05,15,07,19,19.00
2023,05,15,07,20,19.10
2023,05,15,07,21,19.30
2023,05,15,07,22,19.40
2023,05,15,07,23,19.50
2023,05,15,07,24,19.60
2023,05,15,07,25,19.70
2023,05,15,07,26,19.80
2023,05,15,07,27,19.90
2023,05,15,07,28,20.00
2023,05,15,07,29,20.10
2023,05,15,07,30,20.20
2023,05,15,07,31,20.30
2023,05,15,07,32,20.40
2023,05,15,07,33,20.50
2023,05,15,07,34,20.50
2023,05,15,07,35,20.60
2023,05,15,07,36,20.70
2023,05,15,07,37,20.70
2023,05,15,07,38,20.80
2023,05,15,07,39,20.90
2023,05,15,07,40,20.90
2023,05,15,07,41,20.90
2023,05,15,07,42,20.90
2023,05,15,07,43,21.00
2023,05,15,07,44,21.00
2023,05,15,07,45,21.10
2023,05,15,07,46,21.10
2023,05,15,07,47,21.10
2023,05,15,07,48,21.10
2023,05,15,07,49,21.10
2023,05,15,07,50,21.10
2023,05,15,07,51,21.10
2023,05,15,07,52,21.10
2023,05,15,07,53,21.10
2023,05,15,07,54,21.20
2023,05,15,07,55,21.20
2023,05,15,07,56,21.20
2023,05,15,07,57,21.30
2023,05,15,07,58,21.30
2023,05,15,07,59,21.40
2023,05,15,08,00,21.40
2023,05,15,08,01,21.50
2023,05,15,08,02,21.60
2023,05,15,08,03,21.70
2023,05,15,08,04,21.70
2023,05,15,08,05,21.90
2023,05,15,08,06,22.00
2023,05,15,08,07,22.10
2023,05,15,08,08,22.20
2023,05,15,08,09,22.30
2023,05,15,08,10,22.40
2023,05,15,08,11,22.50
2023,05,15,08,12,22.60
2023,05,15,08,13,22.70
2023,05,15,08,14,22.80
2023,05,15,08,15,22.80
2023,05,15,08,16,22.90
2023,05,15,08,17,23.00
2023,05,15,08,18,23.10
2023,05,15,08,19,23.20
2023,05,15,08,20,23.30
2023,05,15,08,21,23.40
2023,05,15,08,22,23.50
2023,05,15,08,23,23.50
2023,05,15,08,24,23.60
2023,05,15,08,25,23.60
2023,05,15,08,26,23.70
2023,05,15,08,27,23.70
2023,05,15,08,28,23.80
2023,05,15,08,29,23.90
2023,05,15,08,30,23.90
2023,05,15,08,31,24.00
2023,05,15,08,32,24.10
2023,05,15,08,33,24.10
2023,05,15,08,34,24.20
2023,05,15,08,35,24.30
2023,05,15,08,36,24.30
2023,05,15,08,37,24.40
2023,05,15,08,38,24.50
2023,05,15,08,39,24.50
2023,05,15,08,40,24.60
2023,05,15,08,41,24.60
2023,05,15,08,42,24.70
2023,05,15,08,43,24.70
2023,05,15,08,44,24.80
2023,05,15,08,45,24.80
2023,05,15,08,46,24.90
2023,05,15,08,47,25.00
2023,05,15,08,48,25.10
2023,05,15,08,49,25.20
2023,05,15,08,50,25.30
2023,05,15,08,51,25.40
2023,05,15,08,52,25.50
2023,05,15,08,53,25.60
2023,05,15,08,54,25.80
2023,05,15,08,55,25.80
2023,05,15,08,56,25.90
2023,05,15,08,57,26.00
2023,05,15,08,58,26.10
2023,05,15,08,59,26.20
2023,05,15,09,00,26.30
2023,05,15,09,01,26.40
2023,05,15,09,02,26.50
2023,05,15,09,03,26.60
2023,05,15,09,04,26.70
2023,05,15,09,05,26.80
2023,05,15,09,06,26.90
2023,05,15,09,07,27.00
2023,05,15,09,08,27.00
2023,05,15,09,09,27.10
2023,05,15,09,10,27.10
2023,05,15,09,11,27.20
2023,05,15,09,12,27.20
2023,05,15,09,13,27.30
2023,05,15,09,14,27.30
2023,05,15,09,15,27.40
2023,05,15,09,16,27.40
2023,05,15,09,17,27.50
2023,05,15,09,18,27.50
2023,05,15,09,19,27.50
2023,05,15,09,20,27.50
2023,05,15,09,21,27.40
2023,05,15,09,22,27.20
2023,05,15,09,23,27.10
2023,05,15,09,24,27.00
2023,05,15,09,25,27.00
2023,05,15,09,26,27.00
2023,05,15,09,27,27.10
2023,05,15,09,28,27.20
2023,05,15,09,29,27.30
2023,05,15,09,30,27.30
2023,05,15,09,31,27.40
2023,05,15,09,32,27.40
2023,05,15,09,33,27.50
2023,05,15,09,34,27.60
2023,05,15,09,35,27.60
2023,05,15,09,36,27.60
2023,05,15,09,37,27.70
2023,05,15,09,38,27.80
2023,05,15,09,39,27.80
2023,05,15,09,40,27.90
2023,05,15,09,41,27.90
2023,05,15,09,42,27.90
2023,05,15,09,43,27.90
2023,05,15,09,44,27.90
2023,05,15,09,45,27.90
2023,05,15,09,46,28.00
2023,05,15,09,47,28.00
2023,05,15,09,48,28.00
2023,05,15,09,49,28.00
2023,05,15,09,50,28.10
2023,05,15,09,51,28.10
2023,05,15,09,52,28.10
2023,05,15,09,53,28.20
2023,05,15,09,54,28.20
2023,05,15,09,55,28.30
2023,05,15,09,56,28.30
2023,05,15,09,57,28.30
2023,05,15,09,58,28.30
2023,05,15,09,59,28.30
2023,05,15,10,00,28.20
2023,05,15,10,01,28.10
2023,05,15,10,02,28.10
2023,05,15,10,03,28.00
2023,05,15,10,04,27.90
2023,05,15,10,05,27.80
2023,05,15,10,06,27.80
2023,05,15,10,07,27.70
2023,05,15,10,08,27.70
2023,05,15,10,09,27.70
2023,05,15,10,10,27.60
2023,05,15,10,11,27.60
2023,05,15,10,12,27.60
2023,05,15,10,13,27.60
2023,05,15,10,14,27.60
2023,05,15,10,15,27.50
2023,05,15,10,16,27.50
2023,05,15,10,17,27.40
2023,05,15,10,18,27.30
2023,05,15,10,19,27.30
2023,05,15,10,20,27.30
2023,05,15,10,21,27.20
2023,05,15,10,22,27.20
2023,05,15,10,23,27.10
2023,05,15,10,24,27.10
2023,05,15,10,25,27.10
2023,05,15,10,26,27.00
2023,05,15,10,27,26.90
2023,05,15,10,28,26.90
2023,05,15,10,29,26.90
2023,05,15,10,30,26.90
2023,05,15,10,31,26.90
2023,05,15,10,32,26.90
2023,05,15,10,33,26.90
2023,05,15,10,34,27.00
2023,05,15,10,35,27.10
2023,05,15,10,36,27.10
2023,05,15,10,37,27.10
2023,05,15,10,38,27.10
2023,05,15,10,39,27.20
2023,05,15,10,40,27.20
2023,05,15,10,41,27.30
2023,05,15,10,42,27.40
2023,05,15,10,43,27.40
2023,05,15,10,44,27.50
2023,05,15,10,45,27.50
2023,05,15,10,46,27.60
2023,05,15,10,47,27.60
2023,05,15,10,48,27.60
2023,05,15,10,49,27.70
2023,05,15,10,50,27.80
2023,05,15,10,51,27.80
2023,05,15,10,52,27.90
2023,05,15,10,53,28.00
2023,05,15,10,54,28.10
2023,05,15,10,55,28.20
2023,05,15,10,56,28.30
2023,05,15,10,57,28.40
2023,05,15,10,58,28.40
2023,05,15,10,59,28.50
2023,05,15,11,00,28.50
2023,05,15,11,01,28.50
2023,05,15,11,02,28.50
2023,05,15,11,03,28.40
2023,05,15,11,04,28.40
2023,05,15,11,05,28.40
2023,05,15,11,06,28.50
2023,05,15,11,07,28.50
2023,05,15,11,08,28.60
2023,05,15,11,09,28.70
2023,05,15,11,10,28.70
2023,05,15,11,11,28.80
2023,05,15,11,12,28.90
2023,05,15,11,13,28.90
2023,05,15,11,14,28.90
2023,05,15,11,15,28.90
2023,05,15,11,16,28.90
2023,05,15,11,17,28.90
2023,05,15,11,18,28.90
2023,05,15,11,19,28.80
2023,05,15,11,20,28.90
2023,05,15,11,21,28.90
2023,05,15,11,22,28.90
2023,05,15,11,23,28.80
2023,05,15,11,24,28.70
2023,05,15,11,25,28.60
2023,05,15,11,26,28.60
2023,05,15,11,27,28.50
2023,05,15,11,28,28.40
2023,05,15,11,29,28.40
2023,05,15,11,30,28.30
2023,05,15,11,31,28.20
2023,05,15,11,32,28.10
2023,05,15,11,33,28.10
2023,05,15,11,34,28.10
2023,05,15,11,35,28.00
2023,05,15,11,36,28.10
2023,05,15,11,37,28.10
2023,05,15,11,38,28.10
2023,05,15,11,39,28.20
2023,05,15,11,40,28.30
2023,05,15,11,41,28.30
2023,05,15,11,42,28.40
2023,05,15,11,43,28.40
2023,05,15,11,44,28.50
2023,05,15,11,45,28.50
2023,05,15,11,46,28.60
2023,05,15,11,47,28.60
2023,05,15,11,48,28.60
2023,05,15,11,49,28.60
2023,05,15,11,50,28.60
2023,05,15,11,51,28.60
2023,05,15,11,52,28.60
2023,05,15,11,53,28.60
2023,05,15,11,54,28.60
2023,05,15,11,55,28.70
2023,05,15,11,56,28.80
2023,05,15,11,57,28.90
2023,05,15,11,58,28.90
2023,05,15,11,59,29.00
2023,05,15,12,00,29.10
2023,05,15,12,01,29.20
2023,05,15,12,02,29.30
2023,05,15,12,03,29.30
2023,05,15,12,04,29.40
2023,05,15,12,05,29.50
2023,05,15,12,06,29.60
2023,05,15,12,07,29.60
2023,05,15,12,08,29.50
2023,05,15,12,09,29.40
2023,05,15,12,10,29.40
2023,05,15,12,11,29.40
2023,05,15,12,12,29.40
2023,05,15,12,13,29.40
2023,05,15,12,14,29.40
2023,05,15,12,15,29.50
2023,05,15,12,16,29.50
2023,05,15,12,17,29.60
2023,05,15,12,18,29.60
2023,05,15,12,19,29.70
2023,05,15,12,20,29.70
2023,05,15,12,21,29.70
2023,05,15,12,22,29.70
2023,05,15,12,23,29.60
2023,05,15,12,24,29.60
2023,05,15,12,25,29.50
2023,05,15,12,26,29.50
2023,05,15,12,27,29.50
2023,05,15,12,28,29.60
2023,05,15,12,29,29.60
2023,05,15,12,30,29.50
2023,05,15,12,31,29.50
2023,05,15,12,32,29.40
2023,05,15,12,33,29.30
2023,05,15,12,34,29.30
2023,05,15,12,35,29.30
2023,05,15,12,36,29.30
2023,05,15,12,37,29.30
2023,05,15,12,38,29.30
2023,05,15,12,39,29.30
2023,05,15,12,40,29.40
2023,05,15,12,41,29.40
2023,05,15,12,42,29.50
2023,05,15,12,43,29.60
2023,05,15,12,44,29.70
2023,05,15,12,45,29.70
2023,05,15,12,46,29.70
2023,05,15,12,47,29.70
2023,05,15,12,48,29.70
2023,05,15,12,49,29.60
2023,05,15,12,50,29.60
2023,05,15,12,51,29.50
2023,05,15,12,52,29.50
2023,05,15,12,53,29.40
2023,05,15,12,54,29.40
2023,05,15,12,55,29.40
2023,05,15,12,56,29.50
2023,05,15,12,57,29.60
2023,05,15,12,58,29.60
2023,05,15,12,59,29.70
2023,05,15,13,00,29.80
2023,05,15,13,01,29.90
2023,05,15,13,02,29.90
2023,05,15,13,03,30.00
2023,05,15,13,04,30.10
2023,05,15,13,05,30.10
2023,05,15,13,06,30.20
2023,05,15,13,07,30.20
2023,05,15,13,08,30.30
2023,05,15,13,09,30.30
2023,05,15,13,10,30.30
2023,05,15,13,11,30.20
2023,05,15,13,12,30.20
2023,05,15,13,13,30.20
2023,05,15,13,14,30.20
2023,05,15,13,15,30.20
2023,05,15,13,16,30.10
2023,05,15,13,17,30.00
2023,05,15,13,18,29.90
2023,05,15,13,19,29.90
2023,05,15,13,20,29.90
2023,05,15,13,21,29.90
2023,05,15,13,22,29.90
2023,05,15,13,23,30.00
2023,05,15,13,24,30.00
2023,05,15,13,25,30.10
2023,05,15,13,26,30.20
2023,05,15,13,27,30.20
2023,05,15,13,28,30.30
2023,05,15,13,29,30.40
2023,05,15,13,30,30.50
2023,05,15,13,31,30.70
2023,05,15,13,32,30.70
2023,05,15,13,33,30.70
2023,05,15,13,34,30.50
2023,05,15,13,35,30.50
2023,05,15,13,36,30.40
2023,05,15,13,37,30.30
2023,05,15,13,38,30.30
2023,05,15,13,39,30.20
2023,05,15,13,40,30.10
2023,05,15,13,41,30.10
2023,05,15,13,42,30.10
2023,05,15,13,43,30.00
2023,05,15,13,44,29.90
2023,05,15,13,45,29.90
2023,05,15,13,46,30.00
2023,05,15,13,47,30.10
2023,05,15,13,48,30.20
2023,05,15,13,49,30.30
2023,05,15,13,50,30.30
2023,05,15,13,51,30.40
2023,05,15,13,52,30.40
2023,05,15,13,53,30.40
2023,05,15,13,54,30.30
2023,05,15,13,55,30.30
2023,05,15,13,56,30.30
2023,05,15,13,57,30.30
2023,05,15,13,58,30.30
2023,05,15,13,59,30.30
2023,05,15,14,00,30.30
2023,05,15,14,01,30.30
2023,05,15,14,02,30.40
2023,05,15,14,03,30.50
2023,05,15,14,04,30.60
2023,05,15,14,05,30.70
2023,05,15,14,06,30.80
2023,05,15,14,07,30.80
2023,05,15,14,08,30.80
2023,05,15,14,09,30.80
2023,05,15,14,10,30.90
2023,05,15,14,11,30.90
2023,05,15,14,12,30.90
2023,05,15,14,13,31.00
2023,05,15,14,14,31.00
2023,05,15,14,15,31.00
2023,05,15,14,16,31.00
2023,05,15,14,17,31.00
2023,05,15,14,18,31.10
2023,05,15,14,19,31.10
2023,05,15,14,20,31.20
2023,05,15,14,21,31.30
2023,05,15,14,22,31.30
2023,05,15,14,23,31.30
2023,05,15,14,24,31.40
2023,05,15,14,25,31.40
2023,05,15,14,26,31.40
2023,05,15,14,27,31.40
2023,05,15,14,28,31.40
2023,05,15,14,29,31.40
2023,05,15,14,30,31.30
2023,05,15,14,31,31.30
2023,05,15,14,32,31.30
2023,05,15,14,33,31.30
2023,05,15,14,34,31.20
2023,05,15,14,35,31.20
2023,05,15,14,36,31.20
2023,05,15,14,37,31.20
2023,05,15,14,38,31.20
2023,05,15,14,39,31.10
2023,05,15,14,40,31.10
2023,05,15,14,41,31.10
2023,05,15,14,42,31.10
2023,05,15,14,43,31.10
2023,05,15,14,44,31.10
2023,05,15,14,45,31.10
2023,05,15,14,46,31.10
2023,05,15,14,47,31.10
2023,05,15,14,48,31.00
2023,05,15,14,49,31.00
2023,05,15,14,50,31.00
2023,05,15,14,51,31.00
2023,05,15,14,52,31.00
2023,05,15,14,53,31.10
2023,05,15,14,54,31.10
2023,05,15,14,55,31.10
2023,05,15,14,56,31.00
2023,05,15,14,57,31.00
2023,05,15,14,58,30.90
2023,05,15,14,59,30.90
2023,05,15,15,00,30.90
2023,05,15,15,01,30.90
2023,05,15,15,02,31.00
2023,05,15,15,03,31.10
2023,05,15,15,04,31.10
2023,05,15,15,05,31.10
2023,05,15,15,06,31.10
2023,05,15,15,07,31.10
2023,05,15,15,08,31.10
2023,05,15,15,09,31.10
2023,05,15,15,10,31.10
2023,05,15,15,11,31.10
2023,05,15,15,12,31.00
2023,05,15,15,13,30.90
2023,05,15,15,14,30.90
2023,05,15,15,15,30.90
2023,05,15,15,16,30.90
2023,05,15,15,17,30.90
2023,05,15,15,18,30.90
2023,05,15,15,19,31.00
2023,05,15,15,20,31.00
2023,05,15,15,21,31.10
2023,05,15,15,22,31.10
2023,05,15,15,23,31.00
2023,05,15,15,24,31.10
2023,05,15,15,25,31.10
2023,05,15,15,26,31.10
2023,05,15,15,27,31.20
2023,05,15,15,28,31.20
2023,05,15,15,29,31.30
2023,05,15,15,30,31.30
2023,05,15,15,31,31.30
2023,05,15,15,32,31.30
2023,05,15,15,33,31.30
2023,05,15,15,34,31.30
2023,05,15,15,35,31.30
2023,05,15,15,36,31.30
2023,05,15,15,37,31.30
2023,05,15,15,38,31.30
2023,05,15,15,39,31.30
2023,05,15,15,40,31.30
2023,05,15,15,41,31.30
2023,05,15,15,42,31.30
2023,05,15,15,43,31.30
2023,05,15,15,44,31.30
2023,05,15,15,45,31.40
2023,05,15,15,46,31.40
2023,05,15,15,47,31.40
2023,05,15,15,48,31.40
2023,05,15,15,49,31.40
2023,05,15,15,50,31.30
2023,05,15,15,51,31.30
2023,05,15,15,52,31.30
2023,05,15,15,53,31.20
2023,05,15,15,54,31.20
2023,05,15,15,55,31.20
2023,05,15,15,56,31.20
2023,05,15,15,57,31.20
2023,05,15,15,58,31.30
2023,05,15,15,59,31.30
2023,05,15,16,00,31.30
2023,05,15,16,01,31.30
2023,05,15,16,02,31.30
2023,05,15,16,03,31.30
2023,05,15,16,04,31.30
2023,05,15,16,05,31.30
2023,05,15,16,06,31.30
2023,05,15,16,07,31.30
2023,05,15,16,08,31.30
2023,05,15,16,09,31.30
2023,05,15,16,10,31.40
2023,05,15,16,11,31.40
2023,05,15,16,12,31.40
2023,05,15,16,13,31.40
2023,05,15,16,14,31.40
2023,05,15,16,15,31.50
2023,05,15,16,16,31.50
2023,05,15,16,17,31.60
2023,05,15,16,18,31.60
2023,05,15,16,19,31.60
2023,05,15,16,20,31.60
2023,05,15,16,21,31.60
2023,05,15,16,22,31.60
2023,05,15,16,23,31.60
2023,05,15,16,24,31.60
2023,05,15,16,25,31.60
2023,05,15,16,26,31.60
2023,05,15,16,27,31.60
2023,05,15,16,28,31.70
2023,05,15,16,29,31.80
2023,05,15,16,30,31.80
2023,05,15,16,31,31.80
2023,05,15,16,32,31.80
2023,05,15,16,33,31.80
2023,05,15,16,34,31.90
2023,05,15,16,35,31.90
2023,05,15,16,36,31.90
2023,05,15,16,37,31.90
2023,05,15,16,38,32.00
2023,05,15,16,39,32.00
2023,05,15,16,40,32.10
2023,05,15,16,41,32.10
2023,05,15,16,42,32.10
2023,05,15,16,43,32.10
2023,05,15,16,44,32.10
2023,05,15,16,45,32.20
2023,05,15,16,46,32.20
2023,05,15,16,47,32.20
2023,05,15,16,48,32.10
2023,05,15,16,49,32.10
2023,05,15,16,50,32.10
2023,05,15,16,51,32.10
2023,05,15,16,52,32.10
2023,05,15,16,53,32.10
2023,05,15,16,54,32.10
2023,05,15,16,55,32.00
2023,05,15,16,56,32.00
2023,05,15,16,57,32.00
2023,05,15,16,58,32.00
2023,05,15,16,59,32.00
2023,05,15,17,00,31.90
2023,05,15,17,01,31.90
2023,05,15,17,02,31.90
2023,05,15,17,03,31.90
2023,05,15,17,04,31.90
2023,05,15,17,05,31.90
2023,05,15,17,06,31.80
2023,05,15,17,07,31.80
2023,05,15,17,08,31.70
2023,05,15,17,09,31.70
2023,05,15,17,10,31.80
2023,05,15,17,11,31.50
2023,05,15,17,12,31.20
2023,05,15,17,13,31.00
2023,05,15,17,14,30.70
2023,05,15,17,15,30.40
2023,05,15,17,16,30.10
2023,05,15,17,17,29.90
2023,05,15,17,18,29.70
2023,05,15,17,19,29.50